NIMBUS 2 DEB, 49249

Orbit data source: Space-Track

NIMBUS 2 DEB, 49249 is space debris in SSO originally from a launch on Sun, 15 May 1966 UTC launched from the Air Force Western Test Range (AFWTR). Debris objects in space refer to the collection of defunct objects orbiting the Earth. Examples of debris include non-operational satellites, rocket bodies, and fragments generated from explosions, collisions, or faulty payload assembly.

Loading next visibility...
Identifier
49249, 1966-040BX
Orbit
SSO
Country
Flag of USUS
Related business
Manufacturer
Unknown
Mission
Spacecraft
Bus & Motor
Unknown
Mass
Unknown
Launch date (UTC)
1966-05-15 (59 years ago)
Launch vehicle
Unknown
Launch site
Air Force Western Test Range (AFWTR)
Object type
Payload
Rocket body
Debris
Shape & HBR
Unknown shape, 0.1 m
Radar Cross Section
Small (<0.1 m²)

Expand to show TLE details & history
Last TLE update: 1 day ago

TLE from 1 day ago
0 NIMBUS 2 DEB
1 49249U 66040BX  25295.10031595  .00002543  00000-0  46908-2 0  9994
2 49249 100.4615 136.5770 0043719 102.2087 258.3941 13.40552033207322
Epoch: 2025-10-22T02:24Z
TLE epoch observation values (Epoch: 2025-10-22T02:24:27.298Z)
Latitude
0.00003°
Longitude
69.68448°
Altitude
1,116.691 km
Speed
7.291 km/s
True Right ascension
09h 06m 18s
True Declination
0° 00' 00"
Sunlit
Object was in daylight at epoch
Visualization orbit readout
Latitude
Unknown
Longitude
Unknown
Altitude
Unknown
Speed
Unknown
Apparent Right ascension
Unknown
Apparent Declination
Unknown
Sunlit
N/A
Visualization observer readout
Local Sidereal Time
05:56:21
Azimuth
Unknown
Elevation
Unknown
Doppler factor
Unknown
Orbital elements
Apogee altitude
1,137.292 km
Perigee altitude
1,071.864 km
Semi-major axis
7,482.715 km
Eccentricity
0.00437
Inclination
100.4615°
RAAN
136.577°
Arg. of periapsis
102.2087°
True anomaly
257.9039°
Mean anomaly
258.3941°
Eccentric anomaly
258.14895°
Mean motion
3.35316 °/min
Orbital period
107.36 mins
BSTAR
0.0046908
Loading maneuver chart data...
Computing Atmospheric mass density...
Loading historical data...
Loading historical data...
Loading historical data...
Loading historical data...
Loading historical data...
Loading historical data...
Loading historical data...

Documentation

Showing up to 5 results
|